Weather History for Clarksburg, WV

Change the Weather History Date:

Friday, February 1, 2013

  Actual Average Record
Temperature  
Mean Temperature 17 °F -  
Max Temperature 25 °F 40 °F 68 °F (2002)
Min Temperature 9 °F 20 °F -10 °F (1936)
Degree Days  
Heating Degree Days 48    
Moisture  
Dew Point 10 °F    
Average Humidity 75    
Maximum Humidity 93    
Minimum Humidity 56    
Precipitation  
Precipitation 0.00 in - - ()
Sea Level Pressure  
Sea Level Pressure 30.09 in    
Wind  
Wind Speed 10 mph (West)    
Max Wind Speed 25 mph    
Max Gust Speed 32 mph    
Visibility 4 miles    
Events Fog , Snow    
Averages and records for this station are not official NWS values.
T = Trace of Precipitation, MM = Missing Value Source: NWS Daily Summary

Daily Weather History Graph

Daily Weather History Graph

Search for Another Location

Airport:

Trip Planner

Search our weather history database for the weather conditions in past years. The results will help you decide how hot, cold, wet, or windy it might be!

Date:

Astronomy

Feb. 01, 2013 Rise Set
Actual Time 7:27 AM EST 5:41 PM EST
Civil Twilight 6:59 AM EST 6:10 PM EST
Nautical Twilight 6:27 AM EST 6:42 PM EST
Astronomical Twilight 5:55 AM EST 7:13 PM EST
Moon 11:44 PM EST (2/1) 10:02 AM EST (2/1)
Length of Visible Light 11h 10m
Length of Day
10h 14m
Waning Gibbous, 70% of the Moon is Illuminated
Feb 1
Waning Gibbous
Feb 3
Last Quarter
Feb 10
New
Feb 17
First Quarter
Feb 25
Full

Hourly Weather History & Observations

Time (EST) Temp. Windchill Dew Point Humidity Pressure Visibility Wind Dir Wind Speed Gust Speed Precip Events Conditions
12:01 AM 24.8 °F 16.1 °F 19.4 °F 80% 29.83 in 1.0 mi WSW 8.1 mph - 0.00 in Snow Light Snow
12:13 AM 24.8 °F 19.1 °F 21.2 °F 86% 29.82 in 1.0 mi WSW 4.6 mph - 0.00 in Snow Light Snow
12:27 AM 24.8 °F 20.5 °F 21.2 °F 86% 29.82 in 1.5 mi WSW 3.5 mph - 0.00 in Snow Light Snow
12:48 AM 24.8 °F - 21.2 °F 86% 29.81 in 2.0 mi Calm Calm - 0.00 in Snow Light Snow
12:53 AM 24.1 °F 19.7 °F 21.0 °F 88% 29.84 in 2.0 mi West 3.5 mph - 0.00 in Snow Light Snow
1:01 AM 24.8 °F 20.5 °F 21.2 °F 86% 29.82 in 1.5 mi WSW 3.5 mph - 0.00 in Snow Light Snow
1:08 AM 24.8 °F 20.5 °F 21.2 °F 86% 29.81 in 1.0 mi SSW 3.5 mph - 0.00 in Snow Light Snow
1:22 AM 24.8 °F 20.5 °F 21.2 °F 86% 29.81 in 3.0 mi South 3.5 mph - 0.00 in Snow Light Snow
1:36 AM 24.8 °F 16.9 °F 21.2 °F 86% 29.80 in 9.0 mi SW 6.9 mph - 0.00 in   Overcast
1:53 AM 25.0 °F 15.5 °F 19.9 °F 81% 29.82 in 8.0 mi WSW 9.2 mph - 0.00 in   Overcast
2:11 AM 24.8 °F 11.1 °F 21.2 °F 86% 29.82 in 1.8 mi WNW 18.4 mph 26.5 mph 0.00 in Snow Light Snow
2:14 AM 23.0 °F 6.6 °F 19.4 °F 86% 29.82 in 0.5 mi WNW 25.3 mph 32.2 mph 0.00 in Fog , Snow Snow
2:24 AM 21.2 °F 9.5 °F 19.4 °F 93% 29.82 in 0.2 mi NW 11.5 mph 28.8 mph 0.00 in Fog , Snow Heavy Snow
2:42 AM 21.2 °F 8.3 °F 17.6 °F 86% 29.84 in 1.0 mi NW 13.8 mph - 0.00 in Snow Light Snow
2:49 AM 21.2 °F 10.9 °F 17.6 °F 86% 29.85 in 1.2 mi WNW 9.2 mph - 0.00 in Snow Light Snow
2:53 AM 21.9 °F 11.0 °F 18.0 °F 85% 29.88 in 1.2 mi WNW 10.4 mph - 0.00 in Snow Light Snow
3:47 AM 21.2 °F 11.7 °F 17.6 °F 86% 29.90 in 0.8 mi West 8.1 mph - 0.00 in Snow Light Snow
3:53 AM 21.0 °F 10.6 °F 18.0 °F 88% 29.93 in 0.5 mi WNW 9.2 mph - 0.00 in Fog , Snow Snow
4:05 AM 21.2 °F 10.1 °F 17.6 °F 86% 29.91 in 0.8 mi WNW 10.4 mph - 0.00 in Snow Light Snow
4:35 AM 19.4 °F 6.0 °F 15.8 °F 86% 29.93 in 1.0 mi WNW 13.8 mph - 0.00 in Snow Light Snow
4:43 AM 19.4 °F 10.4 °F 15.8 °F 86% 29.94 in 2.0 mi WNW 6.9 mph - 0.00 in Snow Light Snow
4:53 AM 19.9 °F 7.9 °F 15.1 °F 81% 29.98 in 1.8 mi West 11.5 mph 18.4 mph 0.00 in Snow Light Snow
5:08 AM 19.4 °F 5.0 °F 15.8 °F 86% 29.96 in 0.8 mi West 16.1 mph 24.2 mph 0.00 in Snow Light Snow
5:24 AM 17.6 °F 0.9 °F 12.2 °F 79% 29.98 in 1.0 mi WNW 20.7 mph 31.1 mph 0.00 in Snow Light Snow
5:32 AM 17.6 °F 2.2 °F 10.4 °F 73% 29.99 in 2.0 mi WNW 17.3 mph 27.6 mph 0.00 in Snow Light Snow
5:38 AM 17.6 °F 2.7 °F 12.2 °F 79% 29.99 in 1.2 mi WNW 16.1 mph 25.3 mph 0.00 in Snow Light Snow
5:53 AM 17.1 °F -0.3 °F 10.0 °F 74% 30.04 in 1.0 mi West 21.9 mph 28.8 mph 0.00 in Snow Light Snow
6:09 AM 15.8 °F 2.1 °F 10.4 °F 79% 30.02 in 2.0 mi WNW 12.7 mph 24.2 mph 0.00 in Snow Light Snow
6:26 AM 15.8 °F -0.2 °F 10.4 °F 79% 30.04 in 0.8 mi WNW 17.3 mph 25.3 mph 0.00 in Snow Light Snow
6:37 AM 15.8 °F -0.2 °F 8.6 °F 73% 30.05 in 1.5 mi WNW 17.3 mph 26.5 mph 0.00 in Snow Light Snow
6:53 AM 14.0 °F -4.3 °F 7.0 °F 74% 30.11 in 1.8 mi West 21.9 mph 31.1 mph 0.00 in Snow Light Snow
6:58 AM 14.0 °F -0.8 °F 6.8 °F 73% 30.08 in 3.0 mi West 13.8 mph 31.1 mph 0.00 in Snow Light Snow
7:15 AM 12.2 °F -4.8 °F 3.2 °F 67% 30.09 in 4.0 mi WNW 17.3 mph 24.2 mph 0.00 in   Mostly Cloudy
7:44 AM 12.2 °F -3.1 °F 3.2 °F 67% 30.12 in 8.0 mi WNW 13.8 mph - 0.00 in   Overcast
7:53 AM 12.9 °F 0.7 °F 6.1 °F 74% 30.17 in 0.5 mi West 9.2 mph - 0.00 in Snow Snow
8:04 AM 12.2 °F -1.0 °F 8.6 °F 85% 30.13 in 1.0 mi West 10.4 mph - 0.00 in Snow Light Snow
8:21 AM 12.2 °F -2.5 °F 8.6 °F 85% 30.14 in 0.8 mi West 12.7 mph 19.6 mph 0.00 in Snow Light Snow
8:36 AM 12.2 °F -1.8 °F 8.6 °F 85% 30.16 in 0.2 mi WSW 11.5 mph - 0.00 in Snow Light Snow
8:45 AM 12.2 °F -3.1 °F 6.8 °F 79% 30.17 in 0.8 mi WSW 13.8 mph 21.9 mph 0.00 in Snow Light Snow
8:53 AM 12.0 °F -2.0 °F 6.1 °F 77% 30.21 in 0.8 mi WSW 11.5 mph 19.6 mph 0.00 in Snow Light Snow
9:00 AM 12.2 °F -2.5 °F 6.8 °F 79% 30.17 in 1.2 mi West 12.7 mph 21.9 mph 0.00 in Snow Light Snow
9:15 AM 12.2 °F -1.8 °F 3.2 °F 67% 30.19 in 2.5 mi West 11.5 mph 20.7 mph 0.00 in Snow Light Snow
9:38 AM 10.4 °F -6.0 °F 3.2 °F 73% 30.20 in 1.8 mi West 15.0 mph 25.3 mph 0.00 in Snow Light Snow
9:45 AM 10.4 °F -6.0 °F 1.4 °F 67% 30.21 in 2.0 mi West 15.0 mph 25.3 mph 0.00 in Snow Light Snow
9:50 AM 12.2 °F -2.5 °F 1.4 °F 62% 30.21 in 3.0 mi West 12.7 mph 23.0 mph 0.00 in Snow Light Snow
10:10 AM 10.4 °F -4.1 °F 3.2 °F 73% 30.22 in 1.8 mi WSW 11.5 mph - 0.00 in Snow Light Snow
10:18 AM 10.4 °F -3.3 °F 5.0 °F 79% 30.23 in 0.5 mi West 10.4 mph - 0.00 in Snow Snow
10:29 AM 12.2 °F 0.7 °F 3.2 °F 67% 30.23 in 2.0 mi West 8.1 mph 19.6 mph 0.00 in Snow Light Snow
10:33 AM 12.2 °F -3.7 °F 1.4 °F 62% 30.23 in 6.0 mi West 15.0 mph 25.3 mph 0.00 in Snow Light Snow
10:53 AM 12.0 °F -1.3 °F 1.0 °F 61% 30.29 in 6.0 mi WSW 10.4 mph 19.6 mph 0.00 in Snow Blowing Snow
11:17 AM 12.2 °F -3.1 °F 1.4 °F 62% 30.25 in 6.0 mi WSW 13.8 mph - 0.00 in   Overcast
11:46 AM 12.2 °F -0.2 °F 1.4 °F 62% 30.26 in 9.0 mi WSW 9.2 mph - 0.00 in   Overcast
11:53 AM 12.9 °F -0.9 °F 3.0 °F 65% 30.30 in 8.0 mi WSW 11.5 mph - 0.00 in   Overcast
12:33 PM 12.2 °F -1.0 °F 6.8 °F 79% 30.26 in 2.5 mi WSW 10.4 mph - 0.00 in Snow Light Snow
12:39 PM 12.2 °F -2.5 °F 6.8 °F 79% 30.26 in 1.8 mi WSW 12.7 mph - 0.00 in Snow Light Snow
12:46 PM 14.0 °F -0.8 °F 5.0 °F 67% 30.26 in 3.0 mi WSW 13.8 mph - 0.00 in Snow Light Snow
12:53 PM 14.0 °F -0.8 °F 3.0 °F 62% 30.30 in 8.0 mi West 13.8 mph 20.7 mph 0.00 in   Overcast
1:53 PM 14.0 °F 1.2 °F 3.0 °F 62% 30.30 in 10.0 mi West 10.4 mph - N/A   Overcast
2:53 PM 15.1 °F 0.5 °F 3.9 °F 61% 30.31 in 9.0 mi WSW 13.8 mph 20.7 mph N/A   Overcast
3:53 PM 15.1 °F -0.6 °F 3.9 °F 61% 30.33 in 9.0 mi WSW 16.1 mph 20.7 mph 0.00 in   Overcast
4:53 PM 15.1 °F 4.2 °F 3.9 °F 61% 30.34 in 9.0 mi West 8.1 mph - 0.00 in   Overcast
5:53 PM 14.0 °F 0.5 °F 1.0 °F 56% 30.35 in 10.0 mi WSW 11.5 mph - 0.00 in   Mostly Cloudy
6:53 PM 14.0 °F 2.9 °F 1.9 °F 59% 30.37 in 10.0 mi WSW 8.1 mph - N/A   Overcast
7:53 PM 14.0 °F 2.0 °F 1.0 °F 56% 30.38 in 10.0 mi WSW 9.2 mph - N/A   Overcast
8:53 PM 12.0 °F 4.1 °F -0.0 °F 59% 30.39 in 10.0 mi SW 4.6 mph - N/A   Clear
9:53 PM 9.0 °F 0.6 °F -0.0 °F 67% 30.40 in 10.0 mi SSW 4.6 mph - N/A   Clear
10:53 PM 9.0 °F 2.4 °F -0.0 °F 67% 30.39 in 10.0 mi South 3.5 mph - N/A   Clear
11:53 PM 9.0 °F - -0.0 °F 67% 30.38 in 10.0 mi Calm Calm - N/A   Clear